This demonstration page uses our WeatherBlox Daily Observations layout. Learn more.

Left ArrowRight Arrow

Hourly Observations for July 12, 2016

Temp ( °F °C ) Dew Point ( °F °C ) Humidity (%) Winds ( mph kmh ) Pressure ( in mb ) Visibility ( mi km ) Precip ( " mm )
12:51 am 00:51 Clear 84 28.9 35 1.7 17 17 NW 13 20 29.70 1006 10 16 0.00 0.00
1:51 am 01:51 Clear 83 28.3 37 2.8 19 19 NW 12 19 29.71 1006 10 16 0.00 0.00
2:51 am 02:51 Clear 82 27.8 38 3.3 21 21 NNW 12 19 29.71 1006 10 16 0.00 0.00
3:51 am 03:51 Clear 81 27.2 37 2.8 21 21 NW 6 9 29.72 1006 10 16 0.00 0.00
4:51 am 04:51 Clear 79 26.1 38 3.3 23 23 NNW 8 13 29.74 1007 10 16 0.00 0.00
5:51 am 05:51 Sunny 77 25 39 3.9 26 26 SSE 7 11 29.76 1008 10 16 0.00 0.00
6:51 am 06:51 Sunny 79 26.1 39 3.9 24 24 SSE 6 9 29.80 1009 10 16 0.00 0.00
7:51 am 07:51 Sunny 86 30 39 3.9 19 19 Calm 29.82 1010 10 16 0.00 0.00
8:51 am 08:51 Sunny 89 31.7 38 3.3 16 16 Calm 29.82 1010 10 16 0.00 0.00
9:51 am 09:51 Sunny 93 33.9 40 4.4 16 16 NW 7 11 29.81 1010 10 16 0.00 0.00
10:51 am 10:51 Sunny 96 35.6 45 7.2 17 17 undefined N/A 29.80 1009 10 16 0.00 0.00
11:51 am 11:51 Sunny 97 36.1 44 6.7 16 16 undefined N/A 29.78 1009 10 16 0.00 0.00
12:51 pm 12:51 Sunny 100 37.8 43 6.1 14 14 WSW 16 26 29.76 1008 10 16 0.00 0.00
1:51 pm 13:51 Sunny 100 37.8 39 3.9 12 12 Calm 29.74 1007 10 16 0.00 0.00
2:51 pm 14:51 Sunny 103 39.4 35 1.7 9 9 VRB 6 9 29.72 1007 10 16 0.00 0.00
3:51 pm 15:51 Sunny 104 40 36 2.2 9 9 NW 13 20 29.70 1006 10 16 0.00 0.00
4:51 pm 16:51 Sunny 103 39.4 33 0.6 9 9 NW 16 26 29.69 1005 10 16 0.00 0.00
5:51 pm 17:51 Sunny 101 38.3 36 2.2 10 10 NW 18 30 29.68 1005 10 16 0.00 0.00
6:51 pm 18:51 Sunny 99 37.2 37 2.8 12 12 NW 17 28 29.69 1005 10 16 0.00 0.00
7:51 pm 19:51 Clear 94 34.4 36 2.2 13 13 NNW 9 15 29.70 1006 10 16 0.00 0.00
8:51 pm 20:51 Clear 87 30.6 37 2.8 17 17 NNW 7 11 29.74 1007 10 16 0.00 0.00
9:51 pm 21:51 Clear 84 28.9 39 3.9 20 20 WNW 8 13 29.76 1008 10 16 0.00 0.00
10:51 pm 22:51 Clear 82 27.8 39 3.9 22 22 NNW 10 17 29.78 1008 10 16 0.00 0.00
11:51 pm 23:51 Clear 85 29.4 38 3.3 19 19 NNW 9 15 29.77 1008 10 16 0.00 0.00

Powered by AerisWeather